TimeCDT,TemperatureF,Dew PointF,Humidity,Sea Level PressureIn,VisibilityMPH,Wind Direction,Wind SpeedMPH,Gust SpeedMPH,PrecipitationIn,Events,Conditions,WindDirDegrees,DateUTC
12:35 AM,30.2,19.4,64,30.06,10.0,North,9.2,-,N/A,,Clear,10,2013-03-21 05:35:00
1:15 AM,28.4,19.4,69,30.06,10.0,North,4.6,-,N/A,,Clear,360,2013-03-21 06:15:00
1:35 AM,28.4,17.6,64,30.05,10.0,North,6.9,-,N/A,,Clear,360,2013-03-21 06:35:00
1:55 AM,28.4,17.6,64,30.06,10.0,North,8.1,-,N/A,,Clear,10,2013-03-21 06:55:00
2:15 AM,28.4,17.6,64,30.05,10.0,North,8.1,-,N/A,,Clear,10,2013-03-21 07:15:00
2:35 AM,28.4,17.6,64,30.05,10.0,North,6.9,-,N/A,,Clear,360,2013-03-21 07:35:00
2:55 AM,26.6,17.6,69,30.06,10.0,North,5.8,-,N/A,,Clear,360,2013-03-21 07:55:00
3:15 AM,26.6,15.8,64,30.05,10.0,North,3.5,-,N/A,,Clear,360,2013-03-21 08:15:00
3:35 AM,26.6,15.8,64,30.05,10.0,North,3.5,-,N/A,,Clear,360,2013-03-21 08:35:00
3:55 AM,26.6,17.6,69,30.03,10.0,North,3.5,-,N/A,,Clear,10,2013-03-21 08:55:00
4:15 AM,26.6,15.8,64,30.03,10.0,North,3.5,-,N/A,,Clear,10,2013-03-21 09:15:00
4:35 AM,24.8,15.8,69,30.03,10.0,Calm,Calm,-,N/A,,Clear,0,2013-03-21 09:35:00
4:55 AM,24.8,17.6,74,30.03,10.0,Calm,Calm,-,N/A,,Clear,0,2013-03-21 09:55:00
5:15 AM,23.0,17.6,80,30.03,10.0,Calm,Calm,-,N/A,,Clear,0,2013-03-21 10:15:00
5:35 AM,23.0,17.6,80,30.03,10.0,Calm,Calm,-,N/A,,Clear,0,2013-03-21 10:35:00
5:55 AM,24.8,17.6,74,30.04,10.0,Calm,Calm,-,N/A,,Clear,0,2013-03-21 10:55:00
6:15 AM,21.2,17.6,86,30.05,10.0,Calm,Calm,-,N/A,,Clear,0,2013-03-21 11:15:00
6:35 AM,23.0,17.6,80,30.04,10.0,Calm,Calm,-,N/A,,Clear,0,2013-03-21 11:35:00
6:55 AM,21.2,17.6,86,30.05,10.0,Calm,Calm,-,N/A,,Clear,0,2013-03-21 11:55:00
7:15 AM,21.2,17.6,86,30.06,10.0,Calm,Calm,-,N/A,,Clear,0,2013-03-21 12:15:00
7:55 AM,26.6,19.4,74,30.07,10.0,Calm,Calm,-,N/A,,Clear,0,2013-03-21 12:55:00
8:15 AM,26.6,19.4,74,30.07,10.0,West,3.5,-,N/A,,Clear,260,2013-03-21 13:15:00
8:35 AM,28.4,17.6,64,30.07,9.0,West,3.5,-,N/A,,Clear,270,2013-03-21 13:35:00
8:55 AM,30.2,15.8,55,30.08,10.0,SW,5.8,-,N/A,,Clear,230,2013-03-21 13:55:00
9:15 AM,30.2,15.8,55,30.08,10.0,WSW,4.6,-,N/A,,Clear,240,2013-03-21 14:15:00
9:35 AM,30.2,12.2,47,30.08,10.0,NW,3.5,-,N/A,,Clear,310,2013-03-21 14:35:00
9:55 AM,32.0,12.2,44,30.08,9.0,West,3.5,-,N/A,,Clear,270,2013-03-21 14:55:00
10:15 AM,32.0,14.0,48,30.08,10.0,NW,5.8,-,N/A,,Clear,310,2013-03-21 15:15:00
10:35 AM,33.8,12.2,41,30.08,10.0,NNW,9.2,-,N/A,,Clear,330,2013-03-21 15:35:00
10:55 AM,33.8,14.0,44,30.07,10.0,Calm,Calm,-,N/A,,Clear,0,2013-03-21 15:55:00
11:35 AM,35.6,15.8,44,30.06,10.0,NNE,4.6,-,N/A,,Clear,20,2013-03-21 16:35:00
11:55 AM,35.6,14.0,41,30.06,10.0,NNW,3.5,-,N/A,,Clear,330,2013-03-21 16:55:00
12:15 PM,37.4,15.8,41,30.05,10.0,Variable,3.5,-,N/A,,Clear,0,2013-03-21 17:15:00
12:35 PM,37.4,14.0,38,30.05,10.0,Calm,Calm,-,N/A,,Clear,0,2013-03-21 17:35:00
12:55 PM,39.2,15.8,39,30.05,10.0,Variable,3.5,-,N/A,,Clear,0,2013-03-21 17:55:00
1:15 PM,39.2,15.8,39,30.04,10.0,Variable,3.5,-,N/A,,Clear,0,2013-03-21 18:15:00
1:35 PM,39.2,15.8,39,30.03,10.0,NNE,9.2,-,N/A,,Clear,30,2013-03-21 18:35:00
1:55 PM,41.0,17.6,39,30.02,10.0,Variable,4.6,-,N/A,,Clear,0,2013-03-21 18:55:00
2:15 PM,42.8,15.8,34,30.01,10.0,NNW,6.9,-,N/A,,Clear,340,2013-03-21 19:15:00
2:35 PM,42.8,15.8,34,30.00,10.0,NNE,6.9,-,N/A,,Clear,30,2013-03-21 19:35:00
2:55 PM,42.8,15.8,34,29.99,10.0,North,4.6,-,N/A,,Clear,350,2013-03-21 19:55:00
3:15 PM,42.8,15.8,34,29.98,10.0,Variable,3.5,-,N/A,,Clear,0,2013-03-21 20:15:00
3:35 PM,42.8,15.8,34,29.97,10.0,North,5.8,-,N/A,,Clear,350,2013-03-21 20:35:00
3:55 PM,44.6,17.6,34,29.96,10.0,Variable,4.6,-,N/A,,Clear,0,2013-03-21 20:55:00
4:15 PM,44.6,15.8,31,29.96,10.0,Calm,Calm,-,N/A,,Clear,0,2013-03-21 21:15:00
4:35 PM,44.6,17.6,34,29.95,10.0,Variable,4.6,-,N/A,,Clear,0,2013-03-21 21:35:00
4:55 PM,44.6,15.8,31,29.94,10.0,North,4.6,-,N/A,,Clear,360,2013-03-21 21:55:00
5:15 PM,44.6,15.8,31,29.94,10.0,North,4.6,-,N/A,,Clear,350,2013-03-21 22:15:00
5:35 PM,44.6,15.8,31,29.94,10.0,NE,4.6,-,N/A,,Clear,40,2013-03-21 22:35:00
5:55 PM,44.6,15.8,31,29.94,10.0,Calm,Calm,-,N/A,,Clear,0,2013-03-21 22:55:00
6:15 PM,42.8,15.8,34,29.93,10.0,NE,5.8,-,N/A,,Partly Cloudy,50,2013-03-21 23:15:00
6:35 PM,42.8,19.4,39,29.94,10.0,ENE,3.5,-,N/A,,Partly Cloudy,60,2013-03-21 23:35:00
6:55 PM,42.8,17.6,36,29.94,10.0,Calm,Calm,-,N/A,,Partly Cloudy,0,2013-03-21 23:55:00
7:15 PM,42.8,14.0,31,29.95,10.0,Calm,Calm,-,N/A,,Clear,0,2013-03-22 00:15:00
7:35 PM,41.0,19.4,42,29.95,10.0,Calm,Calm,-,N/A,,Clear,0,2013-03-22 00:35:00
7:55 PM,37.4,17.6,45,29.95,10.0,Calm,Calm,-,N/A,,Clear,0,2013-03-22 00:55:00
8:15 PM,37.4,19.4,48,29.96,10.0,Calm,Calm,-,N/A,,Clear,0,2013-03-22 01:15:00
8:35 PM,37.4,23.0,56,29.96,10.0,Calm,Calm,-,N/A,,Mostly Cloudy,0,2013-03-22 01:35:00
8:55 PM,37.4,23.0,56,29.97,10.0,Calm,Calm,-,N/A,,Overcast,0,2013-03-22 01:55:00
9:15 PM,37.4,26.6,65,29.98,10.0,Calm,Calm,-,N/A,,Overcast,0,2013-03-22 02:15:00
9:35 PM,37.4,24.8,60,29.98,10.0,Calm,Calm,-,N/A,,Mostly Cloudy,0,2013-03-22 02:35:00
9:55 PM,37.4,26.6,65,29.98,10.0,Calm,Calm,-,N/A,,Partly Cloudy,0,2013-03-22 02:55:00
10:15 PM,37.4,28.4,70,29.98,10.0,Calm,Calm,-,N/A,,Clear,0,2013-03-22 03:15:00
10:35 PM,37.4,23.0,56,29.98,10.0,NE,6.9,-,N/A,,Clear,50,2013-03-22 03:35:00
10:55 PM,37.4,24.8,60,29.99,10.0,NE,3.5,-,N/A,,Clear,50,2013-03-22 03:55:00
11:15 PM,37.4,23.0,56,29.99,10.0,Calm,Calm,-,N/A,,Clear,0,2013-03-22 04:15:00
11:35 PM,37.4,21.2,52,30.00,10.0,ENE,4.6,-,N/A,,Partly Cloudy,70,2013-03-22 04:35:00
11:55 PM,37.4,19.4,48,30.00,10.0,East,5.8,-,N/A,,Partly Cloudy,90,2013-03-22 04:55:00